Wellsville, NY

9:07 PM EST on November 16, 2019 (GMT -0500)
Wellsville Municipal-Tarantine

Weather History for KELZ - October, 2019

Change the Weather History Date:

Monday, October 21, 2019

  Actual Average (WUND) Record (WUND)
Temperature  
Mean Temperature 52 °F -  
Max Temperature 66 °F - - (-1)
Min Temperature 37 °F - - (-1)
Degree Days  
Heating Degree Days 14    
Growing Degree Days 2 (Base 50)    
Moisture  
Dew Point 41 °F    
Average Humidity 83    
Maximum Humidity 100    
Minimum Humidity 34    
Precipitation  
Precipitation 0.00 in - - ()
Sea Level Pressure  
Sea Level Pressure 30.06 in    
Wind  
Wind Speed 2 mph ()    
Max Wind Speed 17 mph    
Max Gust Speed 24 mph    
Visibility 5.0 miles    
Events Fog    
Averages and records for this station are not official NWS values.
T = Trace of Precipitation, MM = Missing Value Source: Averaged Metar Reports

Daily Weather History Graph

Daily Weather History Graph

Search for Another Location

Airport or City:

Astronomy

Oct. 21, 2019 Rise Set
Actual Time 7:31 AM EDT 6:21 PM EDT
Civil Twilight 7:02 AM EDT 6:49 PM EDT
Nautical Twilight 6:30 AM EDT 7:22 PM EDT
Astronomical Twilight 5:57 AM EDT 7:54 PM EDT
Moon No Moon Rise 2:51 PM EDT (10/21)
Length of Visible Light 11h 46m
Length of Day
10h 50m
Waning Gibbous, 48% of the Moon is Illuminated
Oct 21
Waning Gibbous
Oct 27
New
Nov 4
First Quarter
Nov 12
Full
Nov 19
Last Quarter

Hourly Weather History & Observations

Time (EDT) Temp. Windchill Dew Point Humidity Pressure Visibility Wind Dir Wind Speed Gust Speed Precip Events Conditions
12:56 AM 45.0 °F - 43.0 °F 93% 30.05 in 10.0 mi Calm Calm - N/A   Clear
1:56 AM 43.0 °F - 42.1 °F 97% 30.05 in 10.0 mi Calm Calm - N/A   Clear
2:56 AM 42.1 °F - 42.1 °F 100% 30.06 in 10.0 mi Calm Calm - N/A   Clear
3:08 AM 41.0 °F - 41.0 °F 100% 30.05 in 1.8 mi Calm Calm - N/A   Clear
3:19 AM 41.0 °F - 41.0 °F 100% 30.05 in 0.5 mi Calm Calm - N/A Fog Fog
3:47 AM 41.0 °F - 41.0 °F 100% 30.05 in 2.0 mi Calm Calm - N/A   Clear
3:56 AM 41.0 °F - 41.0 °F 100% 30.06 in 1.8 mi Calm Calm - N/A   Clear
4:04 AM 41.0 °F - 41.0 °F 100% 30.05 in 3.0 mi Calm Calm - N/A   Clear
4:06 AM 41.0 °F - 41.0 °F 100% 30.06 in 1.8 mi Calm Calm - N/A   Clear
4:13 AM 41.0 °F - 41.0 °F 100% 30.06 in 0.2 mi Calm Calm - N/A Fog Fog
4:23 AM 41.0 °F - 41.0 °F 100% 30.06 in 1.0 mi Calm Calm - N/A   Clear
4:26 AM 41.0 °F - 41.0 °F 100% 30.06 in 3.0 mi Calm Calm - N/A   Clear
4:44 AM 41.0 °F - 41.0 °F 100% 30.06 in 1.8 mi Calm Calm - N/A   Clear
4:56 AM 39.9 °F - 39.9 °F 100% 30.08 in 2.0 mi Calm Calm - N/A   Clear
5:23 AM 41.0 °F - 41.0 °F 100% 30.08 in 3.0 mi Calm Calm - N/A   Clear
5:38 AM 41.0 °F - 41.0 °F 100% 30.09 in 1.8 mi Calm Calm - N/A   Clear
5:50 AM 41.0 °F - 41.0 °F 100% 30.08 in 0.8 mi Calm Calm - N/A   Mist
5:56 AM 39.9 °F - 39.9 °F 100% 30.10 in 0.2 mi Calm Calm - N/A Fog Fog
6:56 AM 39.0 °F 36.8 °F 39.0 °F 100% 30.10 in 0.2 mi SE 3.5 mph - N/A Fog Fog
7:12 AM 37.0 °F - 37.0 °F 100% 30.08 in 1.0 mi Calm Calm - N/A   Mist
7:19 AM 37.0 °F - 37.0 °F 100% 30.08 in 1.0 mi Calm Calm - N/A   Clear
7:23 AM 39.0 °F - 37.9 °F 96% 30.08 in 0.2 mi Calm Calm - N/A Fog Fog
7:56 AM 39.0 °F - 39.0 °F 100% 30.11 in 0.2 mi Calm Calm - N/A Fog Fog
8:56 AM 44.1 °F - 44.1 °F 100% 30.12 in 1.0 mi Calm Calm - N/A   Mist
9:02 AM 45.0 °F - 45.0 °F 100% 30.10 in 3.0 mi Calm Calm - N/A   Scattered Clouds
9:56 AM 51.1 °F - 45.0 °F 80% 30.12 in 10.0 mi SE 5.8 mph - N/A   Clear
10:56 AM 55.9 °F - 46.0 °F 69% 30.10 in 10.0 mi SE 6.9 mph - N/A   Clear
11:56 AM 61.0 °F - 43.0 °F 52% 30.09 in 10.0 mi ESE 13.8 mph 20.7 mph N/A   Clear
12:56 PM 62.1 °F - 37.9 °F 41% 30.07 in 10.0 mi SSE 13.8 mph 21.9 mph N/A   Clear
1:56 PM 64.9 °F - 39.9 °F 40% 30.04 in 10.0 mi SE 11.5 mph - N/A   Clear
2:56 PM 66.0 °F - 39.0 °F 37% 30.03 in 10.0 mi SSE 17.3 mph 24.2 mph N/A   Clear
3:56 PM 66.0 °F - 37.9 °F 36% 30.01 in 10.0 mi SSE 15.0 mph 23.0 mph N/A   Clear
4:56 PM 64.9 °F - 36.0 °F 34% 30.01 in 10.0 mi SSE 12.7 mph 21.9 mph N/A   Clear
5:56 PM 62.1 °F - 36.0 °F 38% 30.01 in 10.0 mi SSE 8.1 mph - N/A   Clear
6:56 PM 57.9 °F - 36.0 °F 44% 30.02 in 10.0 mi SSE 11.5 mph - N/A   Clear
7:56 PM 55.9 °F - 37.9 °F 51% 30.00 in 10.0 mi SSE 13.8 mph 21.9 mph N/A   Clear
8:56 PM 55.0 °F - 43.0 °F 64% 29.99 in 10.0 mi SSE 12.7 mph 23.0 mph N/A   Clear
9:56 PM 55.0 °F - 44.1 °F 67% 29.99 in 10.0 mi SSE 15.0 mph 21.9 mph N/A   Clear